Location: Amsterdam
(30.7274°N, 84.4357°W)
Time: 20:35:40
(UTC+00:00)

Altair - Pass Details

Date: 08 August 2024
Orbit: 1501 x 1682 km, 47.2° (Epoch: 07 September)

Event Time Altitude Azimuth Distance (km) Brightness Sun altitude
Rises 02:03:32 0° 305° (NW) 4,682 11.7 -19.5°
Reaches altitude 10° 02:06:40 10° 301° (WNW) 3,681 10.7 -20.0°
Maximum altitude 02:15:33 54° 227° (SW) 1,765 7.8 -21.6°
Enters shadow 02:20:47 26° 163° (SSE) 2,598 8.2 -22.5°
Drops below altitude 10° 02:24:21 10° 153° (SSE) 3,647 - -23.1°
Sets 02:27:28 0° 148° (SSE) 4,636 - -23.6°
